When you browse on this site, cookies collect data to enhance your experience and personalize the content and advertising you see.
Visit our Privacy Policy to learn more. By continuing to use the site, you agree to this use of cookies and data.
  • în România
  • Lista ţărilor
  • Pe 7 zile
  • Temperatura apei
  • Hartă satelitară
  • Meteo pe hartă
  • Widget-uri
  • user-avatar
    Intrare

    Meteo pe oră la Franceville

    Astăzi, 18 Iunie, Marţi

    Timp Temperatura Precipitaţii Vânt Presiune Umiditate
    00:00 +26°C° 0 mm 1 m/s 733 mmHg 78%
    01:00 +23°C° 0 mm 0 m/s 733 mmHg 80%
    02:00 +23°C° 0 mm 0 m/s 733 mmHg 81%
    03:00 +22°C° 0 mm 0 m/s 733 mmHg 82%
    04:00 +22°C° 0 mm 0 m/s 732 mmHg 83%
    05:00 +22°C° 0 mm 0 m/s 733 mmHg 82%
    06:00 +22°C° 0 mm 0 m/s 733 mmHg 81%
    07:00 +24°C° 0 mm 1 m/s 733 mmHg 80%
    08:00 +27°C° 0 mm 1 m/s 733 mmHg 69%
    09:00 +30°C° 0 mm 1 m/s 734 mmHg 59%
    10:00 +33°C° 0 mm 1 m/s 734 mmHg 49%
    11:00 +33°C° 0 mm 0 m/s 734 mmHg 44%
    12:00 +35°C° 0 mm 0 m/s 733 mmHg 38%
    13:00 +37°C° 0 mm 0 m/s 732 mmHg 33%
    14:00 +35°C° 0 mm 0 m/s 732 mmHg 36%
    15:00 +34°C° 0 mm 0 m/s 731 mmHg 39%
    16:00 +32°C° 0 mm 0 m/s 730 mmHg 42%
    17:00 +31°C° 0 mm 0 m/s 731 mmHg 46%
    18:00 +29°C° 0 mm 0 m/s 731 mmHg 51%
    19:00 +28°C° 0 mm 0 m/s 731 mmHg 55%
    20:00 +28°C° 0 mm 0 m/s 732 mmHg 58%
    21:00 +27°C° 0 mm 0 m/s 732 mmHg 60%
    22:00 +27°C° 0 mm 0 m/s 733 mmHg 62%
    23:00 +26°C° 0.1 mm 0 m/s 733 mmHg 64%

    Mâine, 19 Iunie, Miercuri

    Timp Temperatura Precipitaţii Vânt Presiune Umiditate
    00:00 +26°C° 0.1 mm 0 m/s 733 mmHg 66%
    01:00 +25°C° 0.1 mm 0 m/s 732 mmHg 68%
    02:00 +27°C° 0 mm 1 m/s 732 mmHg 70%
    03:00 +26°C° 0 mm 1 m/s 732 mmHg 72%
    04:00 +26°C° 0 mm 1 m/s 732 mmHg 74%
    05:00 +26°C° 0 mm 1 m/s 732 mmHg 73%
    06:00 +23°C° 0 mm 0 m/s 733 mmHg 73%
    07:00 +23°C° 0 mm 0 m/s 733 mmHg 73%
    08:00 +26°C° 0 mm 0 m/s 734 mmHg 64%
    09:00 +30°C° 0 mm 1 m/s 734 mmHg 55%
    10:00 +33°C° 0 mm 1 m/s 734 mmHg 46%
    11:00 +34°C° 0 mm 1 m/s 733 mmHg 42%
    12:00 +36°C° 0 mm 1 m/s 732 mmHg 38%
    13:00 +39°C° 0 mm 1 m/s 732 mmHg 35%
    14:00 +35°C° 0 mm 0 m/s 731 mmHg 36%
    15:00 +34°C° 0 mm 0 m/s 731 mmHg 38%
    16:00 +33°C° 0 mm 0 m/s 730 mmHg 39%
    17:00 +32°C° 0 mm 0 m/s 731 mmHg 42%
    18:00 +31°C° 0 mm 0 m/s 731 mmHg 46%
    19:00 +30°C° 0 mm 0 m/s 732 mmHg 49%
    20:00 +29°C° 0.1 mm 0 m/s 732 mmHg 55%
    21:00 +30°C° 0.1 mm 1 m/s 732 mmHg 62%
    22:00 +29°C° 0.1 mm 1 m/s 733 mmHg 68%
    23:00 +28°C° 0.1 mm 1 m/s 733 mmHg 70%

    Poimâine, 20 Iunie, Joi

    Timp Temperatura Precipitaţii Vânt Presiune Umiditate
    00:00 +28°C° 0.1 mm 1 m/s 733 mmHg 72%
    01:00 +27°C° 0.1 mm 1 m/s 732 mmHg 74%
    02:00 +27°C° 0 mm 1 m/s 732 mmHg 74%
    03:00 +27°C° 0 mm 1 m/s 732 mmHg 75%
    04:00 +27°C° 0 mm 1 m/s 732 mmHg 75%
    05:00 +26°C° 0 mm 1 m/s 732 mmHg 76%
    06:00 +26°C° 0 mm 1 m/s 733 mmHg 76%
    07:00 +26°C° 0 mm 1 m/s 733 mmHg 76%
    08:00 +28°C° 0 mm 1 m/s 733 mmHg 67%
    09:00 +30°C° 0 mm 1 m/s 734 mmHg 59%
    10:00 +32°C° 0 mm 1 m/s 734 mmHg 50%
    11:00 +34°C° 0 mm 1 m/s 733 mmHg 45%
    12:00 +35°C° 0 mm 1 m/s 733 mmHg 40%
    13:00 +37°C° 0 mm 1 m/s 732 mmHg 35%
    14:00 +36°C° 0 mm 1 m/s 731 mmHg 37%
    15:00 +35°C° 0 mm 1 m/s 731 mmHg 39%
    16:00 +35°C° 0 mm 1 m/s 731 mmHg 41%
    17:00 +33°C° 0.1 mm 1 m/s 731 mmHg 48%
    18:00 +31°C° 0.1 mm 1 m/s 731 mmHg 54%
    19:00 +30°C° 0.1 mm 1 m/s 732 mmHg 60%
    20:00 +29°C° 0 mm 1 m/s 732 mmHg 65%
    21:00 +28°C° 0 mm 1 m/s 733 mmHg 69%
    22:00 +25°C° 0 mm 0 m/s 733 mmHg 74%
    23:00 +25°C° 0 mm 0 m/s 733 mmHg 75%

    21 Iunie, Vineri

    Timp Temperatura Precipitaţii Vânt Presiune Umiditate
    00:00 +26°C° 0 mm 1 m/s 733 mmHg 77%
    01:00 +26°C° 0 mm 1 m/s 733 mmHg 78%
    02:00 +25°C° 0 mm 1 m/s 732 mmHg 80%
    03:00 +25°C° 0 mm 1 m/s 732 mmHg 82%
    04:00 +25°C° 0 mm 1 m/s 732 mmHg 84%
    05:00 +23°C° 0 mm 0 m/s 733 mmHg 84%
    06:00 +23°C° 0 mm 0 m/s 733 mmHg 84%
    07:00 +23°C° 0 mm 0 m/s 734 mmHg 83%
    08:00 +27°C° 0 mm 1 m/s 734 mmHg 73%
    09:00 +30°C° 0 mm 1 m/s 734 mmHg 63%
    10:00 +32°C° 0 mm 1 m/s 734 mmHg 53%
    11:00 +34°C° 0 mm 1 m/s 734 mmHg 47%
    12:00 +36°C° 0 mm 1 m/s 733 mmHg 41%
    13:00 +39°C° 0 mm 1 m/s 733 mmHg 34%
    14:00 +37°C° 0 mm 1 m/s 732 mmHg 35%
    15:00 +36°C° 0 mm 1 m/s 731 mmHg 35%
    16:00 +36°C° 0 mm 1 m/s 730 mmHg 36%
    17:00 +34°C° 0 mm 1 m/s 730 mmHg 43%
    18:00 +32°C° 0 mm 1 m/s 731 mmHg 50%
    19:00 +31°C° 0 mm 1 m/s 731 mmHg 57%
    20:00 +30°C° 0.9 mm 1 m/s 732 mmHg 64%
    21:00 +28°C° 0.9 mm 1 m/s 732 mmHg 71%
    22:00 +27°C° 0.9 mm 1 m/s 733 mmHg 79%
    23:00 +27°C° 0 mm 1 m/s 733 mmHg 81%

    22 Iunie, Sâmbătă

    Timp Temperatura Precipitaţii Vânt Presiune Umiditate
    00:00 +26°C° 0 mm 1 m/s 733 mmHg 83%
    01:00 +26°C° 0 mm 1 m/s 732 mmHg 85%
    02:00 +25°C° 0 mm 1 m/s 732 mmHg 85%
    03:00 +25°C° 0 mm 1 m/s 732 mmHg 85%
    04:00 +24°C° 0 mm 1 m/s 732 mmHg 85%
    05:00 +24°C° 0 mm 1 m/s 732 mmHg 84%
    06:00 +24°C° 0 mm 1 m/s 732 mmHg 83%
    07:00 +24°C° 0 mm 1 m/s 733 mmHg 82%
    08:00 +26°C° 0 mm 1 m/s 733 mmHg 73%
    09:00 +28°C° 0 mm 1 m/s 734 mmHg 64%
    10:00 +31°C° 0 mm 1 m/s 734 mmHg 54%
    11:00 +32°C° 0 mm 1 m/s 734 mmHg 50%
    12:00 +33°C° 0 mm 1 m/s 733 mmHg 46%
    13:00 +35°C° 0 mm 1 m/s 733 mmHg 42%
    14:00 +35°C° 0 mm 2 m/s 732 mmHg 47%
    15:00 +32°C° 0 mm 2 m/s 731 mmHg 52%
    16:00 +31°C° 0 mm 2 m/s 731 mmHg 57%
    17:00 +30°C° 0 mm 2 m/s 731 mmHg 63%
    18:00 +29°C° 0 mm 1 m/s 731 mmHg 68%
    19:00 +27°C° 0 mm 1 m/s 731 mmHg 74%
    20:00 +27°C° 0 mm 1 m/s 732 mmHg 77%
    21:00 +27°C° 0 mm 1 m/s 732 mmHg 79%
    22:00 +26°C° 0 mm 1 m/s 733 mmHg 81%
    23:00 +26°C° 0.1 mm 1 m/s 733 mmHg 82%

    23 Iunie, Duminică

    Timp Temperatura Precipitaţii Vânt Presiune Umiditate
    00:00 +26°C° 0.1 mm 1 m/s 733 mmHg 83%
    01:00 +26°C° 0.1 mm 1 m/s 733 mmHg 84%
    02:00 +25°C° 0.1 mm 1 m/s 733 mmHg 84%
    03:00 +25°C° 0.1 mm 1 m/s 732 mmHg 84%
    04:00 +24°C° 0.1 mm 1 m/s 732 mmHg 84%
    05:00 +24°C° 0 mm 1 m/s 733 mmHg 83%
    06:00 +24°C° 0 mm 1 m/s 733 mmHg 82%
    07:00 +24°C° 0 mm 1 m/s 733 mmHg 80%
    08:00 +26°C° 0 mm 1 m/s 734 mmHg 70%
    09:00 +29°C° 0 mm 1 m/s 734 mmHg 60%
    10:00 +31°C° 0 mm 1 m/s 734 mmHg 50%
    11:00 +33°C° 0 mm 1 m/s 734 mmHg 45%
    12:00 +34°C° 0 mm 1 m/s 733 mmHg 41%
    13:00 +36°C° 0 mm 1 m/s 732 mmHg 36%
    14:00 +35°C° 0 mm 1 m/s 731 mmHg 38%
    15:00 +35°C° 0 mm 1 m/s 731 mmHg 40%
    16:00 +34°C° 0 mm 1 m/s 730 mmHg 43%
    17:00 +32°C° 0 mm 1 m/s 730 mmHg 46%
    18:00 +31°C° 0 mm 1 m/s 731 mmHg 50%
    19:00 +30°C° 0 mm 1 m/s 731 mmHg 54%
    20:00 +29°C° 0 mm 1 m/s 732 mmHg 55%
    21:00 +29°C° 0 mm 1 m/s 732 mmHg 55%
    22:00 +28°C° 0 mm 1 m/s 733 mmHg 55%
    23:00 +28°C° 0 mm 1 m/s 733 mmHg 55%
    Arată mai mult